Regional Weather Roundup
Issued by NWS

Home | Current Version | Previous Version | Text Only | Print | Product List | Glossary Off
Versions: 1 2 3 4 5 6 7 8 9 10 11 12 13 14 15 16 17 18 19 20 21 22 23 24 25 26 27 28 29 30 31 32 33 34 35 36 37 38 39 40 41 42 43 44 45 46 47 48 49 50

000
ASUS43 KLSX 230659
RWRMO

WEATHER SUMMARY FOR MISSOURI
NATIONAL WEATHER SERVICE SPRINGFIELD MO
200 AM CDT WED APR 23 2014

NOTE: "FAIR" INDICATES FEW OR NO CLOUDS BELOW 12,000 FEET WITH NO
       SIGNIFICANT WEATHER AND/OR OBSTRUCTIONS TO VISIBILITY.
       CURRENT SKY AND/OR WEATHER CONDITIONS ARE NOT AVAILABLE FOR
       CHILLICOTHE AND FARMINGTON.

MOZ001>031-035>038-043-044-053-054-230800-
...NORTHERN AND WESTERN MISSOURI...

CITY           SKY/WX    TMP DP  RH WIND       PRES   REMARKS
KANSAS CTY INT PTCLDY    56  34  43 E10       30.00S
KANSAS C DTWN  PTCLDY    55  34  45 E5        29.99S
LEE`S SUMMIT   CLEAR     54  34  46 SE5       30.01S
ST JOSEPH      MOCLDY    56  35  45 SE10      30.00S
CHILLICOTHE      N/A     52  35  52 CALM      30.04F
KIRKSVILLE     MOCLDY    48  33  56 NE6       30.05F

$$
MOZ066>068-077>081-088>096-101>105-230800-
...SOUTHWEST MISSOURI...

CITY           SKY/WX    TMP DP  RH WIND       PRES   REMARKS
SPRINGFIELD    PTCLDY    49  36  61 E6        30.00S
JOPLIN         PTCLDY    51  38  60 E5        29.98F

$$
MOZ032>034-039>042-045>050-055>058-069>072-230800-
...CENTRAL MISSOURI...

CITY           SKY/WX    TMP DP  RH WIND       PRES   REMARKS
COLUMBIA       CLEAR     49  35  58 NE7       30.03F
JEFFERSON CITY CLEAR     48  39  71 CALM      30.04R
ROLLA          CLEAR     47  32  56 NE7       30.02S
SEDALIA        CLEAR     50  37  61 E5        30.02F
OSAGE BEACH    CLEAR     48  34  57 CALM      30.04S

$$
MOZ051-052-059>065-230800-
...EAST CENTRAL MISSOURI...

CITY           SKY/WX    TMP DP  RH WIND       PRES   REMARKS
ST LOUIS INTL  PTCLDY    50  34  54 CALM      30.04S
SPIRIT OF STL  CLEAR     42  38  85 CALM      30.04R
ST CHARLES     CLEAR     49  33  54 N8        30.03S

$$
MOZ072>076-082>087-097>100-106>115-230800-
...SOUTH CENTRAL AND SOUTHEAST MISSOURI...

CITY           SKY/WX    TMP DP  RH WIND       PRES   REMARKS
CAPE GIRARDEAU CLEAR     45  40  82 W5        30.00S
FARMINGTON     CLEAR     48  34  57 N3        30.04S
POPLAR BLUFF   CLEAR     50  43  77 CALM      30.00R
WEST PLAINS    CLEAR     45  33  63 CALM      30.03R

$$



USA.gov is the U.S. government's official web portal to all federal, state and local government web resources and services.